When you browse on this site, cookies collect data to enhance your experience and personalize the content and advertising you see.
Visit our Privacy Policy to learn more. By continuing to use the site, you agree to this use of cookies and data.
EN

Hourly Weather Vitryanka

Today, 15 August, Saturday

Time Temperature Precipitation Wind Pressure Humidity
00:00 +18°C° 0 mm 2 mps 755 mmHg 54%
01:00 +18°C° 0 mm 2 mps 755 mmHg 55%
02:00 +17°C° 0 mm 2 mps 755 mmHg 56%
03:00 +17°C° 0 mm 2 mps 755 mmHg 57%
04:00 +17°C° 0 mm 2 mps 755 mmHg 59%
05:00 +16°C° 0 mm 2 mps 755 mmHg 61%
06:00 +18°C° 0 mm 3 mps 755 mmHg 54%
07:00 +20°C° 0 mm 3 mps 756 mmHg 48%
08:00 +22°C° 0 mm 3 mps 756 mmHg 41%
09:00 +23°C° 0 mm 4 mps 756 mmHg 38%
10:00 +25°C° 0 mm 4 mps 756 mmHg 35%
11:00 +26°C° 0 mm 4 mps 756 mmHg 31%
12:00 +26°C° 0 mm 4 mps 756 mmHg 30%
13:00 +27°C° 0 mm 4 mps 756 mmHg 29%
14:00 +27°C° 0 mm 4 mps 756 mmHg 27%
15:00 +27°C° 0 mm 4 mps 755 mmHg 28%
16:00 +27°C° 0 mm 4 mps 755 mmHg 29%
17:00 +27°C° 0 mm 4 mps 755 mmHg 30%
18:00 +25°C° 0 mm 4 mps 755 mmHg 37%
19:00 +22°C° 0 mm 3 mps 755 mmHg 43%
20:00 +20°C° 0 mm 3 mps 755 mmHg 50%
21:00 +19°C° 0 mm 2 mps 755 mmHg 53%
22:00 +18°C° 0 mm 2 mps 755 mmHg 55%
23:00 +17°C° 0 mm 2 mps 755 mmHg 58%

Tomorrow, 16 August, Sunday

Time Temperature Precipitation Wind Pressure Humidity
00:00 +17°C° 0 mm 2 mps 755 mmHg 60%
01:00 +18°C° 0 mm 1 mps 755 mmHg 61%
02:00 +18°C° 0 mm 1 mps 755 mmHg 63%
03:00 +17°C° 0 mm 2 mps 755 mmHg 64%
04:00 +17°C° 0 mm 2 mps 755 mmHg 66%
05:00 +17°C° 0 mm 3 mps 755 mmHg 67%
06:00 +19°C° 0 mm 3 mps 755 mmHg 59%
07:00 +21°C° 0 mm 4 mps 755 mmHg 51%
08:00 +23°C° 0 mm 4 mps 755 mmHg 42%
09:00 +25°C° 0 mm 5 mps 755 mmHg 39%
10:00 +26°C° 0 mm 5 mps 755 mmHg 36%
11:00 +27°C° 0 mm 5 mps 756 mmHg 33%
12:00 +27°C° 0 mm 5 mps 756 mmHg 31%
13:00 +28°C° 0 mm 5 mps 755 mmHg 29%
14:00 +28°C° 0 mm 5 mps 755 mmHg 27%
15:00 +28°C° 0 mm 5 mps 755 mmHg 28%
16:00 +27°C° 0 mm 5 mps 755 mmHg 29%
17:00 +27°C° 0 mm 4 mps 755 mmHg 30%
18:00 +25°C° 0 mm 4 mps 755 mmHg 35%
19:00 +22°C° 0 mm 3 mps 755 mmHg 40%
20:00 +20°C° 0 mm 2 mps 755 mmHg 46%
21:00 +19°C° 0 mm 2 mps 755 mmHg 49%
22:00 +19°C° 0 mm 1 mps 756 mmHg 53%
23:00 +19°C° 0 mm 1 mps 756 mmHg 56%

Day after tomorrow, 17 August, Monday

Time Temperature Precipitation Wind Pressure Humidity
00:00 +19°C° 0 mm 1 mps 756 mmHg 57%
01:00 +18°C° 0 mm 1 mps 756 mmHg 58%
02:00 +18°C° 0 mm 1 mps 756 mmHg 59%
03:00 +18°C° 0 mm 1 mps 756 mmHg 60%
04:00 +18°C° 0 mm 1 mps 756 mmHg 62%
05:00 +18°C° 0 mm 1 mps 756 mmHg 63%
06:00 +20°C° 0 mm 1 mps 756 mmHg 55%
07:00 +23°C° 0 mm 2 mps 756 mmHg 46%
08:00 +25°C° 0 mm 2 mps 756 mmHg 38%
09:00 +27°C° 0 mm 2 mps 756 mmHg 35%
10:00 +28°C° 0 mm 3 mps 756 mmHg 31%
11:00 +29°C° 0 mm 3 mps 756 mmHg 28%
12:00 +30°C° 0 mm 3 mps 756 mmHg 27%
13:00 +30°C° 0 mm 4 mps 756 mmHg 27%
14:00 +32°C° 0 mm 4 mps 755 mmHg 26%
15:00 +30°C° 0 mm 4 mps 755 mmHg 28%
16:00 +30°C° 0 mm 4 mps 754 mmHg 30%
17:00 +29°C° 0 mm 4 mps 754 mmHg 32%
18:00 +27°C° 0 mm 4 mps 754 mmHg 40%
19:00 +25°C° 0 mm 3 mps 754 mmHg 48%
20:00 +22°C° 0 mm 3 mps 755 mmHg 55%
21:00 +22°C° 0 mm 3 mps 754 mmHg 57%
22:00 +21°C° 0 mm 2 mps 754 mmHg 59%
23:00 +21°C° 0 mm 2 mps 754 mmHg 60%

18 August, Tuesday

Time Temperature Precipitation Wind Pressure Humidity
00:00 +21°C° 0 mm 2 mps 754 mmHg 61%
01:00 +20°C° 0 mm 2 mps 754 mmHg 62%
02:00 +20°C° 0 mm 2 mps 754 mmHg 62%
03:00 +20°C° 0 mm 2 mps 754 mmHg 63%
04:00 +20°C° 0 mm 2 mps 753 mmHg 64%
05:00 +19°C° 0 mm 2 mps 753 mmHg 65%
06:00 +23°C° 0 mm 2 mps 753 mmHg 57%
07:00 +25°C° 0 mm 2 mps 753 mmHg 49%
08:00 +28°C° 0 mm 2 mps 753 mmHg 42%
09:00 +29°C° 0 mm 2 mps 753 mmHg 38%
10:00 +30°C° 0 mm 3 mps 753 mmHg 34%
11:00 +33°C° 0 mm 3 mps 753 mmHg 30%
12:00 +33°C° 0 mm 3 mps 753 mmHg 29%
13:00 +34°C° 0 mm 4 mps 752 mmHg 28%
14:00 +34°C° 0 mm 4 mps 752 mmHg 28%
15:00 +34°C° 0 mm 4 mps 752 mmHg 29%
16:00 +33°C° 0 mm 5 mps 752 mmHg 31%
17:00 +32°C° 0 mm 5 mps 752 mmHg 32%
18:00 +29°C° 0 mm 4 mps 752 mmHg 40%
19:00 +27°C° 0 mm 3 mps 752 mmHg 47%
20:00 +25°C° 0 mm 2 mps 752 mmHg 54%
21:00 +24°C° 0 mm 2 mps 752 mmHg 58%
22:00 +23°C° 0 mm 1 mps 752 mmHg 63%
23:00 +23°C° 0 mm 1 mps 752 mmHg 67%

19 August, Wednesday

Time Temperature Precipitation Wind Pressure Humidity
00:00 +22°C° 0 mm 1 mps 752 mmHg 66%
01:00 +22°C° 0 mm 1 mps 752 mmHg 65%
02:00 +22°C° 0 mm 1 mps 751 mmHg 64%
03:00 +22°C° 0 mm 1 mps 751 mmHg 64%
04:00 +21°C° 0 mm 1 mps 751 mmHg 64%
05:00 +21°C° 0 mm 1 mps 751 mmHg 65%
06:00 +23°C° 0 mm 2 mps 751 mmHg 56%
07:00 +26°C° 0 mm 2 mps 751 mmHg 48%
08:00 +28°C° 0 mm 2 mps 751 mmHg 39%
09:00 +30°C° 0 mm 2 mps 751 mmHg 35%
10:00 +31°C° 0 mm 2 mps 751 mmHg 30%
11:00 +34°C° 0 mm 2 mps 752 mmHg 25%
12:00 +34°C° 0 mm 3 mps 751 mmHg 25%
13:00 +35°C° 0 mm 3 mps 751 mmHg 24%
14:00 +35°C° 0 mm 4 mps 751 mmHg 23%
15:00 +35°C° 0 mm 4 mps 751 mmHg 26%
16:00 +34°C° 0 mm 5 mps 750 mmHg 28%
17:00 +33°C° 0 mm 5 mps 750 mmHg 31%
18:00 +30°C° 0 mm 5 mps 750 mmHg 36%
19:00 +28°C° 0 mm 4 mps 750 mmHg 42%
20:00 +26°C° 0 mm 3 mps 750 mmHg 47%
21:00 +25°C° 0 mm 3 mps 750 mmHg 49%
22:00 +24°C° 0 mm 3 mps 750 mmHg 50%
23:00 +24°C° 0 mm 2 mps 750 mmHg 52%

20 August, Thursday

Time Temperature Precipitation Wind Pressure Humidity
00:00 +23°C° 0 mm 2 mps 750 mmHg 53%
01:00 +23°C° 0 mm 2 mps 749 mmHg 54%
02:00 +21°C° 0 mm 3 mps 749 mmHg 55%
03:00 +21°C° 0 mm 2 mps 749 mmHg 55%
04:00 +21°C° 0 mm 2 mps 749 mmHg 56%
05:00 +21°C° 0 mm 2 mps 749 mmHg 56%
06:00 +24°C° 0 mm 3 mps 749 mmHg 50%
07:00 +27°C° 0 mm 3 mps 749 mmHg 45%
08:00 +29°C° 0 mm 4 mps 749 mmHg 39%
09:00 +32°C° 0 mm 4 mps 749 mmHg 34%
10:00 +33°C° 0 mm 4 mps 749 mmHg 29%
11:00 +35°C° 0 mm 4 mps 749 mmHg 25%
12:00 +36°C° 0 mm 4 mps 749 mmHg 23%
13:00 +36°C° 0 mm 4 mps 749 mmHg 22%
14:00 +37°C° 0 mm 4 mps 748 mmHg 21%
15:00 +36°C° 0 mm 5 mps 748 mmHg 21%
16:00 +35°C° 0 mm 6 mps 748 mmHg 22%
17:00 +34°C° 0 mm 6 mps 748 mmHg 23%
18:00 +32°C° 0 mm 5 mps 748 mmHg 29%
19:00 +29°C° 0 mm 4 mps 748 mmHg 35%
20:00 +26°C° 0 mm 3 mps 749 mmHg 41%
21:00 +26°C° 0 mm 2 mps 749 mmHg 43%
22:00 +25°C° 0 mm 1 mps 748 mmHg 45%
23:00 +24°C° 0 mm 1 mps 748 mmHg 47%
Show more